PIA786 EGLL-OPIS

Flight info

Callsign PIA786
Flight time 7h 9m
Altitude 37000
Route DET L6 DVR L9 KONAN UL607 KOK DCT MATUG DCT GUBAX DCT BOREP DCT ENITA DCT PEPIK DCT BALAP DCT NARKA DCT DENAK DCT DINRO DCT UDROS DCT KARDE DCT ROLIN N644 ODILI/N0477F390 N644 TETRO DCT BARAD M747 SUBUT T923 ERLEV M11 RODAR A909 BABUM DCT ABEKO DCT BUROT DCT NINOP DCT SERGO DCT KODAD DCT HANGU DCT NONIB DCT KALMI
Aircraft B772/H-SDE2E3FGHIJ5LORVWXY/LB1D1

Departure

Time 2026-04-23 23:11
Airport London Heathrow Airport (EGLL)

Arrival

Time 2026-04-24 06:20
Airport Islamabad International Airport (OPIS)
Time Latitude Longitude Altitude Speed Heading
2026-04-23 22:27 51.45906 -0.45029 93 ft 0 kts 131°
2026-04-23 22:28 51.45906 -0.45028 94 ft 0 kts 131°
2026-04-23 22:57 51.45914 -0.45044 100 ft 3 kts 131°
2026-04-23 22:57 51.45928 -0.45068 92 ft 3 kts 131°
2026-04-23 22:57 51.45942 -0.45092 91 ft 3 kts 132°
2026-04-23 22:57 51.45953 -0.45113 94 ft 3 kts 128°
2026-04-23 22:58 51.45962 -0.45135 91 ft 3 kts 97°
2026-04-23 22:58 51.45962 -0.45152 91 ft 3 kts 55°
2026-04-23 22:58 51.45950 -0.45174 92 ft 3 kts 40°
2026-04-23 22:58 51.45935 -0.45194 93 ft 3 kts 41°
2026-04-23 22:59 51.45920 -0.45216 92 ft 3 kts 41°
2026-04-23 22:59 51.45905 -0.45237 93 ft 3 kts 41°
2026-04-23 22:59 51.45901 -0.45243 93 ft 3 kts 41°
2026-04-23 23:01 51.45902 -0.45241 93 ft 2 kts 41°
2026-04-23 23:01 51.45932 -0.45199 94 ft 9 kts 41°
2026-04-23 23:01 51.45982 -0.45128 95 ft 10 kts 41°
2026-04-23 23:02 51.46031 -0.45057 93 ft 10 kts 41°
2026-04-23 23:02 51.46081 -0.44986 94 ft 10 kts 41°
2026-04-23 23:02 51.46130 -0.44916 94 ft 10 kts 41°
2026-04-23 23:02 51.46180 -0.44844 95 ft 10 kts 41°
2026-04-23 23:03 51.46234 -0.44766 93 ft 11 kts 41°
2026-04-23 23:03 51.46285 -0.44731 95 ft 7 kts 354°
2026-04-23 23:03 51.46313 -0.44780 94 ft 6 kts 292°
2026-04-23 23:03 51.46316 -0.44853 94 ft 8 kts 271°
2026-04-23 23:04 51.46317 -0.45008 94 ft 20 kts 268°
2026-04-23 23:04 51.46316 -0.45239 94 ft 21 kts 270°
2026-04-23 23:04 51.46314 -0.45463 95 ft 17 kts 268°
2026-04-23 23:04 51.46320 -0.45648 96 ft 17 kts 276°
2026-04-23 23:05 51.46321 -0.45841 92 ft 18 kts 269°
2026-04-23 23:05 51.46321 -0.46036 93 ft 18 kts 270°
2026-04-23 23:05 51.46321 -0.46237 94 ft 19 kts 270°
2026-04-23 23:05 51.46321 -0.46451 93 ft 19 kts 270°
2026-04-23 23:06 51.46320 -0.46666 93 ft 19 kts 268°
2026-04-23 23:06 51.46321 -0.46880 92 ft 19 kts 271°
2026-04-23 23:06 51.46320 -0.47093 95 ft 19 kts 269°
2026-04-23 23:06 51.46320 -0.47284 94 ft 15 kts 275°
2026-04-23 23:07 51.46336 -0.47447 95 ft 15 kts 273°
2026-04-23 23:07 51.46335 -0.47603 95 ft 12 kts 265°
2026-04-23 23:07 51.46303 -0.47723 94 ft 12 kts 239°
2026-04-23 23:07 51.46257 -0.47852 96 ft 14 kts 248°
2026-04-23 23:08 51.46250 -0.48010 92 ft 16 kts 269°
2026-04-23 23:08 51.46248 -0.48272 88 ft 29 kts 269°
2026-04-23 23:08 51.46246 -0.48549 93 ft 16 kts 278°
2026-04-23 23:08 51.46289 -0.48686 94 ft 12 kts 313°
2026-04-23 23:09 51.46364 -0.48745 95 ft 12 kts 351°
2026-04-23 23:09 51.46444 -0.48746 94 ft 7 kts 17°
2026-04-23 23:09 51.46473 -0.48685 96 ft 7 kts 75°
2026-04-23 23:09 51.46480 -0.48603 95 ft 8 kts 88°
2026-04-23 23:10 51.46481 -0.48357 93 ft 41 kts 89°
2026-04-23 23:10 51.46484 -0.47500 93 ft 111 kts 90°
2026-04-23 23:10 51.46487 -0.45922 94 ft 169 kts 90°
2026-04-23 23:10 51.46481 -0.43988 586 ft 174 kts 90°
2026-04-23 23:11 51.46471 -0.42004 1160 ft 182 kts 86°
2026-04-23 23:11 51.46440 -0.40000 1780 ft 177 kts 99°
2026-04-23 23:11 51.45993 -0.38101 2044 ft 192 kts 123°
2026-04-23 23:11 51.45289 -0.36183 2270 ft 212 kts 109°
2026-04-23 23:12 51.44888 -0.33805 2468 ft 231 kts 106°
2026-04-23 23:12 51.44407 -0.31236 2764 ft 246 kts 108°
2026-04-23 23:12 51.43864 -0.28571 3171 ft 259 kts 109°
2026-04-23 23:12 51.43275 -0.25787 3532 ft 272 kts 109°
2026-04-23 23:13 51.42638 -0.22845 4076 ft 279 kts 110°
2026-04-23 23:13 51.41999 -0.19919 4672 ft 283 kts 110°
2026-04-23 23:13 51.41347 -0.16942 5299 ft 285 kts 110°
2026-04-23 23:13 51.40734 -0.13897 5618 ft 290 kts 105°
2026-04-23 23:14 51.40283 -0.10713 5884 ft 293 kts 102°
2026-04-23 23:14 51.39878 -0.07520 6559 ft 292 kts 102°
2026-04-23 23:14 51.39465 -0.04340 7188 ft 292 kts 102°
2026-04-23 23:14 51.39036 -0.01140 7742 ft 295 kts 102°
2026-04-23 23:15 51.38595 0.02070 8274 ft 298 kts 103°
2026-04-23 23:15 51.38147 0.05290 8791 ft 300 kts 103°
2026-04-23 23:15 51.37690 0.08571 9309 ft 302 kts 103°
2026-04-23 23:15 51.37228 0.11860 9812 ft 304 kts 103°
2026-04-23 23:16 51.36762 0.15182 10235 ft 310 kts 103°
2026-04-23 23:16 51.36277 0.18636 10364 ft 326 kts 103°
2026-04-23 23:16 51.35764 0.22269 10501 ft 343 kts 103°
2026-04-23 23:16 51.35223 0.26093 10638 ft 361 kts 103°
2026-04-23 23:17 51.34655 0.30087 10957 ft 375 kts 103°
2026-04-23 23:17 51.34068 0.34209 11491 ft 383 kts 103°
2026-04-23 23:17 51.33481 0.38330 12187 ft 387 kts 103°
2026-04-23 23:17 51.32878 0.42553 12975 ft 389 kts 103°
2026-04-23 23:18 51.32270 0.46806 13733 ft 392 kts 103°
2026-04-23 23:18 51.31655 0.51075 14414 ft 396 kts 103°
2026-04-23 23:18 51.31032 0.55392 15061 ft 401 kts 103°
2026-04-23 23:18 51.30395 0.59761 15680 ft 405 kts 104°
2026-04-23 23:19 51.29668 0.64142 16301 ft 408 kts 106°
2026-04-23 23:19 51.28884 0.68466 16908 ft 412 kts 107°
2026-04-23 23:19 51.28063 0.72861 17495 ft 415 kts 107°
2026-04-23 23:19 51.27232 0.77302 18057 ft 418 kts 107°
2026-04-23 23:20 51.26396 0.81786 18599 ft 422 kts 107°
2026-04-23 23:20 51.25559 0.86294 19134 ft 425 kts 107°
2026-04-23 23:20 51.24727 0.90794 19636 ft 428 kts 107°
2026-04-23 23:20 51.23879 0.95377 20112 ft 431 kts 107°
2026-04-23 23:21 51.23025 0.99990 20619 ft 434 kts 107°
2026-04-23 23:21 51.22168 1.04618 21104 ft 436 kts 107°
2026-04-23 23:21 51.21303 1.09267 21571 ft 439 kts 107°
2026-04-23 23:21 51.20429 1.13952 22015 ft 442 kts 107°
2026-04-23 23:22 51.19547 1.18659 22451 ft 445 kts 107°
2026-04-23 23:22 51.18654 1.23427 22875 ft 448 kts 107°
2026-04-23 23:22 51.17759 1.28192 23297 ft 451 kts 107°
2026-04-23 23:22 51.16883 1.32939 23720 ft 453 kts 105°
2026-04-23 23:23 51.16210 1.37882 24114 ft 456 kts 99°
2026-04-23 23:23 51.15874 1.42909 24519 ft 459 kts 94°
2026-04-23 23:23 51.15655 1.48005 24898 ft 461 kts 94°
2026-04-23 23:23 51.15442 1.53115 25272 ft 464 kts 94°
2026-04-23 23:24 51.15216 1.58270 25628 ft 467 kts 94°
2026-04-23 23:24 51.14975 1.63453 26006 ft 469 kts 94°
2026-04-23 23:24 51.14721 1.68657 26362 ft 472 kts 94°
2026-04-23 23:24 51.14462 1.73819 26711 ft 474 kts 94°
2026-04-23 23:25 51.14194 1.79071 27074 ft 476 kts 95°
2026-04-23 23:25 51.13923 1.84320 27435 ft 478 kts 95°
2026-04-23 23:25 51.13648 1.89619 27773 ft 480 kts 95°
2026-04-23 23:25 51.13372 1.94936 28096 ft 482 kts 95°
2026-04-23 23:26 51.13093 2.00265 28400 ft 485 kts 95°
2026-04-23 23:26 51.12810 2.05632 28720 ft 487 kts 95°
2026-04-23 23:26 51.12525 2.11037 29015 ft 489 kts 95°
2026-04-23 23:26 51.12240 2.16386 29336 ft 491 kts 95°
2026-04-23 23:27 51.11948 2.21805 29649 ft 492 kts 95°
2026-04-23 23:27 51.11652 2.27249 29936 ft 494 kts 95°
2026-04-23 23:27 51.11350 2.32724 30199 ft 496 kts 95°
2026-04-23 23:27 51.11045 2.38209 30446 ft 498 kts 95°
2026-04-23 23:28 51.10735 2.43720 30692 ft 500 kts 95°
2026-04-23 23:28 51.10426 2.49175 30950 ft 501 kts 95°
2026-04-23 23:28 51.10110 2.54723 31194 ft 502 kts 95°
2026-04-23 23:28 51.09792 2.60280 31408 ft 504 kts 95°
2026-04-23 23:29 51.09373 2.65808 31625 ft 505 kts 99°
2026-04-23 23:29 51.08632 2.71216 31882 ft 504 kts 105°
2026-04-23 23:29 51.07734 2.76593 32185 ft 503 kts 105°
2026-04-23 23:29 51.06817 2.81962 32504 ft 502 kts 105°
2026-04-23 23:30 51.05895 2.87337 32787 ft 501 kts 105°
2026-04-23 23:30 51.04983 2.92683 33060 ft 501 kts 105°
2026-04-23 23:30 51.04076 2.98032 33332 ft 500 kts 105°
2026-04-23 23:30 51.03184 3.03329 33602 ft 500 kts 105°
2026-04-23 23:31 51.02288 3.08657 33869 ft 499 kts 105°
2026-04-23 23:31 51.01392 3.13982 34128 ft 498 kts 105°
2026-04-23 23:31 51.00494 3.19306 34382 ft 498 kts 105°
2026-04-23 23:31 50.99596 3.24614 34633 ft 498 kts 105°
2026-04-23 23:32 50.98693 3.29932 34884 ft 497 kts 105°
2026-04-23 23:32 50.96887 3.40509 35022 ft 502 kts 105°
2026-04-23 23:33 50.95050 3.51196 34996 ft 498 kts 105°
2026-04-23 23:33 50.93236 3.61687 35005 ft 494 kts 105°
2026-04-23 23:34 50.91407 3.72202 34997 ft 493 kts 105°
2026-04-23 23:34 50.89571 3.82692 35006 ft 494 kts 105°
2026-04-23 23:35 50.87728 3.93167 35004 ft 494 kts 106°
2026-04-23 23:35 50.85880 4.03604 34997 ft 495 kts 106°
2026-04-23 23:36 50.84011 4.14102 35001 ft 496 kts 106°
2026-04-23 23:36 50.82441 4.22868 35001 ft 497 kts 106°
2026-04-23 23:37 50.80548 4.33384 35000 ft 497 kts 106°
2026-04-23 23:37 50.78642 4.43912 35000 ft 498 kts 106°
2026-04-23 23:38 50.76722 4.54458 35007 ft 498 kts 106°
2026-04-23 23:38 50.74810 4.64900 35003 ft 498 kts 106°
2026-04-23 23:39 50.72873 4.75418 35003 ft 498 kts 106°
2026-04-23 23:39 50.70927 4.85924 35002 ft 498 kts 107°
2026-04-23 23:40 50.68975 4.96408 34999 ft 497 kts 107°
2026-04-23 23:40 50.67024 5.06824 35002 ft 497 kts 107°
2026-04-23 23:41 50.65055 5.17274 35004 ft 497 kts 107°
2026-04-23 23:41 50.63078 5.27712 35002 ft 497 kts 107°
2026-04-23 23:42 50.61090 5.38145 35004 ft 497 kts 107°
2026-04-23 23:42 50.59105 5.48511 35001 ft 497 kts 107°
2026-04-23 23:43 50.57097 5.58939 34992 ft 497 kts 107°
2026-04-23 23:43 50.55093 5.69283 34998 ft 497 kts 107°
2026-04-23 23:44 50.53063 5.79705 35004 ft 498 kts 107°
2026-04-23 23:44 50.51021 5.90135 35002 ft 498 kts 107°
2026-04-23 23:45 50.48975 6.00527 34997 ft 499 kts 107°
2026-04-23 23:45 50.46910 6.10957 35003 ft 499 kts 107°
2026-04-23 23:46 50.44849 6.21304 35003 ft 500 kts 108°
2026-04-23 23:46 50.42764 6.31731 35003 ft 501 kts 108°
2026-04-23 23:47 50.41186 6.42359 35003 ft 501 kts 97°
2026-04-23 23:47 50.40397 6.53213 35005 ft 501 kts 96°
2026-04-23 23:48 50.39620 6.64043 35001 ft 501 kts 96°
2026-04-23 23:48 50.38788 6.74907 34998 ft 501 kts 97°
2026-04-23 23:49 50.37489 6.91171 34997 ft 500 kts 97°
2026-04-23 23:49 50.36619 7.01899 35003 ft 500 kts 97°
2026-04-23 23:50 50.35734 7.12708 34995 ft 499 kts 97°
2026-04-23 23:50 50.34840 7.23503 34996 ft 499 kts 97°
2026-04-23 23:51 50.33937 7.34285 35000 ft 498 kts 97°
2026-04-23 23:51 50.33032 7.44961 35001 ft 498 kts 97°
2026-04-23 23:52 50.32111 7.55729 35007 ft 497 kts 97°
2026-04-23 23:52 50.31182 7.66448 35004 ft 497 kts 98°
2026-04-23 23:53 50.30241 7.77172 35002 ft 497 kts 98°
2026-04-23 23:53 50.29293 7.87885 35003 ft 497 kts 98°
2026-04-23 23:54 50.28276 7.98535 34997 ft 498 kts 99°
2026-04-23 23:54 50.27106 8.09216 35014 ft 500 kts 100°
2026-04-23 23:55 50.26504 8.14577 35124 ft 502 kts 100°
2026-04-23 23:55 50.25901 8.19971 35329 ft 502 kts 100°
2026-04-23 23:55 50.25304 8.25339 35599 ft 500 kts 100°
2026-04-23 23:55 50.24711 8.30688 35866 ft 499 kts 100°
2026-04-23 23:56 50.24119 8.36035 36102 ft 498 kts 100°
2026-04-23 23:56 50.23525 8.41387 36257 ft 499 kts 100°
2026-04-23 23:56 50.22327 8.52110 36531 ft 501 kts 100°
2026-04-23 23:57 50.21734 8.57385 36811 ft 499 kts 100°
2026-04-23 23:57 50.21131 8.62721 36932 ft 499 kts 100°
2026-04-23 23:57 50.19912 8.73436 36988 ft 500 kts 100°
2026-04-23 23:58 50.18685 8.84113 37000 ft 498 kts 100°
2026-04-23 23:58 50.17458 8.94712 37001 ft 496 kts 100°
2026-04-23 23:59 50.16223 9.05289 37001 ft 494 kts 100°
2026-04-23 23:59 50.14986 9.15802 37002 ft 494 kts 100°
2026-04-24 00:00 50.13732 9.26362 37001 ft 495 kts 101°
2026-04-24 00:00 50.12471 9.36895 37004 ft 497 kts 101°
2026-04-24 00:01 50.11190 9.47515 37006 ft 499 kts 101°
2026-04-24 00:01 50.09897 9.58145 37002 ft 501 kts 101°
2026-04-24 00:02 50.08588 9.68819 37006 ft 501 kts 101°
2026-04-24 00:02 50.07276 9.79439 37001 ft 501 kts 101°
2026-04-24 00:03 50.05946 9.90116 37001 ft 501 kts 101°
2026-04-24 00:03 50.04608 10.00771 37000 ft 500 kts 101°
2026-04-24 00:04 50.03272 10.11327 36999 ft 500 kts 101°
2026-04-24 00:04 50.01918 10.21935 37000 ft 499 kts 101°
2026-04-24 00:05 50.00564 10.32469 37001 ft 498 kts 101°
2026-04-24 00:05 49.99196 10.43021 37001 ft 497 kts 101°
2026-04-24 00:06 49.97818 10.53568 37000 ft 497 kts 101°
2026-04-24 00:06 49.96435 10.64101 37001 ft 497 kts 102°
2026-04-24 00:07 49.95025 10.74623 37002 ft 497 kts 102°
2026-04-24 00:07 49.93601 10.85086 37001 ft 498 kts 102°
2026-04-24 00:08 49.92160 10.95600 37002 ft 498 kts 102°
2026-04-24 00:08 49.90707 11.06129 37002 ft 499 kts 102°
2026-04-24 00:09 49.89245 11.16655 37003 ft 499 kts 102°
2026-04-24 00:09 49.87779 11.27130 37003 ft 500 kts 102°
2026-04-24 00:10 49.86295 11.37663 37004 ft 500 kts 102°
2026-04-24 00:10 49.84805 11.48166 37002 ft 500 kts 102°
2026-04-24 00:11 49.83301 11.58697 37000 ft 501 kts 102°
2026-04-24 00:11 49.81783 11.69247 37002 ft 501 kts 103°
2026-04-24 00:12 49.80258 11.79775 37002 ft 501 kts 103°
2026-04-24 00:12 49.78725 11.90282 36997 ft 500 kts 103°
2026-04-24 00:13 49.77189 12.00737 37002 ft 500 kts 103°
2026-04-24 00:13 49.75636 12.11235 37002 ft 500 kts 103°
2026-04-24 00:14 49.74074 12.21725 37000 ft 500 kts 103°
2026-04-24 00:14 49.72500 12.32217 37000 ft 500 kts 103°
2026-04-24 00:15 49.70927 12.42638 37001 ft 500 kts 103°
2026-04-24 00:15 49.69285 12.53083 36995 ft 500 kts 105°
2026-04-24 00:16 49.67446 12.63408 37003 ft 500 kts 106°
2026-04-24 00:16 49.65560 12.73726 37000 ft 500 kts 106°
2026-04-24 00:17 49.63686 12.84059 37002 ft 500 kts 105°
2026-04-24 00:17 49.61814 12.94419 37002 ft 500 kts 105°
2026-04-24 00:18 49.59938 13.04772 37000 ft 500 kts 106°
2026-04-24 00:18 49.58067 13.15033 37001 ft 500 kts 106°
2026-04-24 00:19 49.56177 13.25335 37001 ft 499 kts 106°
2026-04-24 00:19 49.54286 13.35581 37003 ft 499 kts 106°
2026-04-24 00:20 49.52378 13.45865 36998 ft 499 kts 106°
2026-04-24 00:20 49.50457 13.56157 37003 ft 499 kts 106°
2026-04-24 00:21 49.48533 13.66417 37001 ft 499 kts 106°
2026-04-24 00:21 49.46607 13.76625 36999 ft 500 kts 106°
2026-04-24 00:22 49.44657 13.86902 37003 ft 500 kts 106°
2026-04-24 00:22 49.43031 13.95430 37001 ft 500 kts 107°
2026-04-24 00:23 49.41065 14.05697 37000 ft 500 kts 107°
2026-04-24 00:23 49.39103 14.15884 37002 ft 499 kts 107°
2026-04-24 00:24 49.37119 14.26132 36999 ft 499 kts 107°
2026-04-24 00:24 49.35141 14.36293 36999 ft 499 kts 107°
2026-04-24 00:25 49.33144 14.46497 37002 ft 499 kts 107°
2026-04-24 00:25 49.31135 14.56706 37001 ft 499 kts 107°
2026-04-24 00:26 49.29118 14.66904 37000 ft 499 kts 107°
2026-04-24 00:26 49.27108 14.77011 37002 ft 499 kts 107°
2026-04-24 00:27 49.25067 14.87216 37001 ft 499 kts 107°
2026-04-24 00:27 49.23035 14.97329 37001 ft 499 kts 107°
2026-04-24 00:28 49.20979 15.07509 37002 ft 500 kts 107°
2026-04-24 00:28 49.18928 15.17616 37000 ft 500 kts 107°
2026-04-24 00:29 49.16853 15.27787 37002 ft 500 kts 108°
2026-04-24 00:29 49.14771 15.37937 37002 ft 501 kts 108°
2026-04-24 00:30 49.12690 15.48026 37003 ft 500 kts 108°
2026-04-24 00:30 49.10584 15.58187 37000 ft 501 kts 108°
2026-04-24 00:31 49.08472 15.68329 37001 ft 500 kts 108°
2026-04-24 00:31 49.06369 15.78377 37002 ft 500 kts 108°
2026-04-24 00:32 49.04244 15.88481 37001 ft 500 kts 108°
2026-04-24 00:32 49.02110 15.98572 37000 ft 499 kts 108°
2026-04-24 00:33 48.99986 16.08573 37000 ft 499 kts 108°
2026-04-24 00:33 48.97841 16.18619 37001 ft 498 kts 108°
2026-04-24 00:34 48.95690 16.28645 37003 ft 498 kts 108°
2026-04-24 00:34 48.93528 16.38666 37001 ft 498 kts 108°
2026-04-24 00:35 48.91360 16.48672 37002 ft 497 kts 108°
2026-04-24 00:35 48.89200 16.58588 37001 ft 497 kts 108°
2026-04-24 00:36 48.87011 16.68592 36999 ft 497 kts 109°
2026-04-24 00:36 48.84834 16.78495 37002 ft 497 kts 109°
2026-04-24 00:37 48.82633 16.88454 37002 ft 497 kts 109°
2026-04-24 00:37 48.80423 16.98403 37001 ft 497 kts 109°
2026-04-24 00:38 48.78180 17.08249 37007 ft 496 kts 112°
2026-04-24 00:38 48.75289 17.17761 37010 ft 496 kts 116°
2026-04-24 00:39 48.72247 17.27175 37001 ft 497 kts 116°
2026-04-24 00:39 48.69228 17.36541 37002 ft 497 kts 116°
2026-04-24 00:40 48.66202 17.45983 37001 ft 498 kts 116°
2026-04-24 00:40 48.63179 17.55413 37000 ft 498 kts 116°
2026-04-24 00:41 48.60170 17.64770 37004 ft 498 kts 116°
2026-04-24 00:41 48.57122 17.74202 37001 ft 498 kts 116°
2026-04-24 00:42 48.54078 17.83584 37000 ft 497 kts 116°
2026-04-24 00:42 48.51046 17.92894 36998 ft 497 kts 116°
2026-04-24 00:43 48.47987 18.02247 37003 ft 497 kts 117°
2026-04-24 00:43 48.44924 18.11583 36999 ft 496 kts 117°
2026-04-24 00:44 48.41860 18.20889 36999 ft 496 kts 117°
2026-04-24 00:44 48.38776 18.30221 37004 ft 496 kts 117°
2026-04-24 00:45 48.35714 18.39455 37001 ft 496 kts 117°
2026-04-24 00:45 48.32620 18.48748 37001 ft 496 kts 117°
2026-04-24 00:46 48.29519 18.58031 37003 ft 496 kts 117°
2026-04-24 00:46 48.26413 18.67294 37001 ft 496 kts 117°
2026-04-24 00:47 48.23314 18.76504 37001 ft 497 kts 117°
2026-04-24 00:47 48.20183 18.85772 37002 ft 497 kts 117°
2026-04-24 00:48 48.17055 18.94998 36999 ft 497 kts 117°
2026-04-24 00:48 48.13916 19.04224 37001 ft 497 kts 117°
2026-04-24 00:49 48.10783 19.13395 37001 ft 497 kts 117°
2026-04-24 00:49 48.07631 19.22596 37000 ft 497 kts 117°
2026-04-24 00:50 48.04659 19.31925 37005 ft 496 kts 114°
2026-04-24 00:50 48.01866 19.41366 37000 ft 497 kts 114°
2026-04-24 00:51 47.99074 19.50801 37000 ft 497 kts 114°
2026-04-24 00:51 47.96243 19.60232 37002 ft 497 kts 115°
2026-04-24 00:52 47.93466 19.69395 37002 ft 497 kts 115°
2026-04-24 00:52 47.90595 19.78832 36998 ft 498 kts 115°
2026-04-24 00:53 47.87736 19.88194 37003 ft 499 kts 115°
2026-04-24 00:53 47.84851 19.97610 37003 ft 499 kts 115°
2026-04-24 00:54 47.81970 20.06977 37003 ft 499 kts 115°
2026-04-24 00:54 47.79068 20.16379 37001 ft 499 kts 115°
2026-04-24 00:55 47.76169 20.25733 37000 ft 498 kts 115°
2026-04-24 00:55 47.73278 20.35031 37000 ft 497 kts 115°
2026-04-24 00:56 47.70372 20.44345 37000 ft 496 kts 115°
2026-04-24 00:56 47.67464 20.53629 37001 ft 495 kts 115°
2026-04-24 00:57 47.64565 20.62847 37001 ft 495 kts 115°
2026-04-24 00:58 47.60186 20.76708 37001 ft 494 kts 115°
2026-04-24 00:58 47.57275 20.85880 37001 ft 494 kts 116°
2026-04-24 00:59 47.54341 20.95092 37001 ft 495 kts 116°
2026-04-24 00:59 47.51395 21.04307 37002 ft 495 kts 116°
2026-04-24 01:00 47.48435 21.13533 37002 ft 495 kts 116°
2026-04-24 01:00 47.45471 21.22740 37001 ft 495 kts 116°
2026-04-24 01:01 47.42518 21.31877 37001 ft 496 kts 116°
2026-04-24 01:01 47.39530 21.41088 37002 ft 496 kts 116°
2026-04-24 01:02 47.36558 21.50220 37002 ft 496 kts 116°
2026-04-24 01:02 47.33549 21.59427 37001 ft 496 kts 116°
2026-04-24 01:03 47.30541 21.68600 37001 ft 496 kts 116°
2026-04-24 01:03 47.27528 21.77752 37001 ft 496 kts 116°
2026-04-24 01:04 47.24464 21.86780 37000 ft 495 kts 120°
2026-04-24 01:04 47.20715 21.95293 37005 ft 494 kts 124°
2026-04-24 01:05 47.16850 22.03670 37001 ft 495 kts 125°
2026-04-24 01:05 47.13016 22.12005 37001 ft 495 kts 124°
2026-04-24 01:06 47.09164 22.20420 37002 ft 495 kts 124°
2026-04-24 01:06 47.05313 22.28833 37000 ft 496 kts 124°
2026-04-24 01:07 47.01479 22.37184 37002 ft 496 kts 124°
2026-04-24 01:07 46.97618 22.45562 37001 ft 497 kts 124°
2026-04-24 01:08 46.93735 22.53965 37001 ft 497 kts 125°
2026-04-24 01:08 46.89874 22.62293 37002 ft 498 kts 125°
2026-04-24 01:09 46.86628 22.69274 36998 ft 498 kts 125°
2026-04-24 01:09 46.82721 22.77652 37000 ft 499 kts 125°
2026-04-24 01:10 46.78153 22.87421 37004 ft 501 kts 125°
2026-04-24 01:10 46.74881 22.94395 37007 ft 501 kts 125°
2026-04-24 01:11 46.70931 23.02791 37000 ft 502 kts 125°
2026-04-24 01:11 46.66965 23.11196 36998 ft 502 kts 125°
2026-04-24 01:12 46.62996 23.19583 37002 ft 502 kts 125°
2026-04-24 01:12 46.59045 23.27905 37002 ft 503 kts 125°
2026-04-24 01:13 46.55062 23.36271 37004 ft 503 kts 125°
2026-04-24 01:13 46.51074 23.44621 37006 ft 502 kts 125°
2026-04-24 01:14 46.47095 23.52930 37002 ft 501 kts 126°
2026-04-24 01:14 46.43138 23.61167 36994 ft 500 kts 126°
2026-04-24 01:15 46.39156 23.69431 37006 ft 498 kts 126°
2026-04-24 01:15 46.35208 23.77602 37000 ft 496 kts 126°
2026-04-24 01:16 46.31237 23.85795 37000 ft 495 kts 126°
2026-04-24 01:16 46.27295 23.93906 37000 ft 494 kts 126°
2026-04-24 01:17 46.23323 24.02056 37001 ft 494 kts 126°
2026-04-24 01:17 46.19388 24.10106 37000 ft 494 kts 126°
2026-04-24 01:18 46.15407 24.18225 37001 ft 494 kts 126°
2026-04-24 01:18 46.11420 24.26333 37003 ft 495 kts 126°
2026-04-24 01:19 46.07425 24.34434 37004 ft 496 kts 126°
2026-04-24 01:19 46.03441 24.42490 37002 ft 497 kts 126°
2026-04-24 01:20 45.99417 24.50602 37005 ft 498 kts 126°
2026-04-24 01:20 45.95385 24.58709 37002 ft 498 kts 126°
2026-04-24 01:21 45.91367 24.66764 37001 ft 498 kts 126°
2026-04-24 01:21 45.87320 24.74854 37002 ft 498 kts 126°
2026-04-24 01:22 45.83268 24.82931 36999 ft 498 kts 126°
2026-04-24 01:22 45.79193 24.91029 37001 ft 498 kts 126°
2026-04-24 01:23 45.75163 24.99018 37000 ft 498 kts 127°
2026-04-24 01:23 45.71098 25.07051 37000 ft 497 kts 127°
2026-04-24 01:24 45.67025 25.15078 36999 ft 498 kts 127°
2026-04-24 01:24 45.62966 25.23055 36998 ft 499 kts 127°
2026-04-24 01:25 45.58861 25.31098 37007 ft 500 kts 127°
2026-04-24 01:25 45.54753 25.39123 37003 ft 500 kts 127°
2026-04-24 01:26 45.50666 25.47086 37002 ft 500 kts 127°
2026-04-24 01:26 45.46545 25.55093 36994 ft 501 kts 127°
2026-04-24 01:27 45.42428 25.63068 37000 ft 502 kts 127°
2026-04-24 01:27 45.38278 25.71087 37003 ft 503 kts 127°
2026-04-24 01:28 45.34123 25.79092 37004 ft 503 kts 127°
2026-04-24 01:28 45.29986 25.87039 37001 ft 503 kts 127°
2026-04-24 01:29 45.25791 25.95076 37007 ft 502 kts 127°
2026-04-24 01:29 45.21659 26.02970 36995 ft 500 kts 127°
2026-04-24 01:30 45.17511 26.10871 36998 ft 498 kts 127°
2026-04-24 01:30 45.13379 26.18721 37000 ft 495 kts 127°
2026-04-24 01:31 45.09282 26.26485 37003 ft 493 kts 127°
2026-04-24 01:31 45.05170 26.34250 36998 ft 492 kts 128°
2026-04-24 01:32 45.01051 26.42010 37004 ft 492 kts 128°
2026-04-24 01:32 44.96957 26.49745 37001 ft 492 kts 127°
2026-04-24 01:33 44.92888 26.57464 37002 ft 492 kts 127°
2026-04-24 01:33 44.88786 26.65222 37002 ft 492 kts 127°
2026-04-24 01:34 44.84673 26.72968 37001 ft 493 kts 128°
2026-04-24 01:34 44.80579 26.80651 37002 ft 493 kts 128°
2026-04-24 01:35 44.76447 26.88386 37002 ft 494 kts 128°
2026-04-24 01:35 44.72310 26.96110 37002 ft 494 kts 128°
2026-04-24 01:36 44.68162 27.03833 37002 ft 494 kts 128°
2026-04-24 01:36 44.64012 27.11539 37001 ft 494 kts 128°
2026-04-24 01:37 44.59882 27.19185 37001 ft 494 kts 128°
2026-04-24 01:37 44.55703 27.26907 37001 ft 494 kts 128°
2026-04-24 01:38 44.51561 27.34538 37001 ft 494 kts 128°
2026-04-24 01:38 44.47383 27.42213 37001 ft 494 kts 128°
2026-04-24 01:39 44.43208 27.49862 37001 ft 494 kts 128°
2026-04-24 01:39 44.39033 27.57492 37001 ft 494 kts 128°
2026-04-24 01:40 44.34869 27.65084 37001 ft 494 kts 128°
2026-04-24 01:40 44.30682 27.72696 37001 ft 493 kts 128°
2026-04-24 01:41 44.26519 27.80245 37001 ft 493 kts 128°
2026-04-24 01:41 44.22313 27.87850 37001 ft 493 kts 128°
2026-04-24 01:42 44.18138 27.95381 37005 ft 493 kts 128°
2026-04-24 01:42 44.13937 28.02939 36999 ft 494 kts 128°
2026-04-24 01:43 44.09721 28.10503 37002 ft 494 kts 128°
2026-04-24 01:43 44.05524 28.18014 37001 ft 494 kts 128°
2026-04-24 01:44 44.01292 28.25567 37002 ft 494 kts 129°
2026-04-24 01:44 43.97090 28.33046 37002 ft 494 kts 129°
2026-04-24 01:45 43.92845 28.40585 37001 ft 494 kts 129°
2026-04-24 01:45 43.88613 28.48081 37001 ft 494 kts 129°
2026-04-24 01:46 43.84364 28.55587 37001 ft 494 kts 129°
2026-04-24 01:46 43.80149 28.63012 37001 ft 493 kts 129°
2026-04-24 01:47 43.75898 28.70480 37001 ft 493 kts 129°
2026-04-24 01:47 43.71644 28.77934 37001 ft 493 kts 129°
2026-04-24 01:48 43.67468 28.85411 37001 ft 493 kts 127°
2026-04-24 01:48 43.63466 28.93143 37000 ft 493 kts 126°
2026-04-24 01:49 43.59517 29.00825 37002 ft 493 kts 126°
2026-04-24 01:49 43.55507 29.08512 37002 ft 493 kts 127°
2026-04-24 01:50 43.51465 29.16183 37001 ft 493 kts 127°
2026-04-24 01:50 43.47443 29.23787 37001 ft 493 kts 127°
2026-04-24 01:51 43.43398 29.31419 37001 ft 493 kts 127°
2026-04-24 01:51 43.39351 29.39038 37001 ft 493 kts 127°
2026-04-24 01:52 43.35322 29.46606 37001 ft 493 kts 127°
2026-04-24 01:52 43.31265 29.54205 37001 ft 493 kts 127°
2026-04-24 01:53 43.27200 29.61800 37001 ft 493 kts 127°
2026-04-24 01:53 43.23125 29.69394 37001 ft 493 kts 127°
2026-04-24 01:54 43.19073 29.76925 37001 ft 493 kts 127°
2026-04-24 01:54 43.14986 29.84503 37001 ft 493 kts 127°
2026-04-24 01:55 43.10924 29.92016 37001 ft 493 kts 127°
2026-04-24 01:55 43.06837 29.99554 37001 ft 493 kts 127°
2026-04-24 01:56 43.02739 30.07091 37001 ft 493 kts 127°
2026-04-24 01:56 42.98641 30.14612 37001 ft 493 kts 127°
2026-04-24 01:57 42.94539 30.22122 37001 ft 493 kts 127°
2026-04-24 01:57 42.90428 30.29626 37001 ft 493 kts 127°
2026-04-24 01:58 42.87011 30.35850 37001 ft 493 kts 128°
2026-04-24 01:58 42.82222 30.44548 37001 ft 493 kts 128°
2026-04-24 01:59 42.78095 30.52026 37001 ft 493 kts 128°
2026-04-24 01:59 42.74595 30.59972 37005 ft 494 kts 112°
2026-04-24 02:00 42.72964 30.67433 37000 ft 495 kts 99°
2026-04-24 02:00 42.72047 30.76733 37000 ft 495 kts 97°
2026-04-24 02:01 42.71192 30.86050 37002 ft 496 kts 97°
2026-04-24 02:01 42.70285 30.95302 37002 ft 496 kts 98°
2026-04-24 02:02 42.69328 31.04595 37002 ft 496 kts 98°
2026-04-24 02:02 42.68352 31.13904 37001 ft 496 kts 98°
2026-04-24 02:03 42.66882 31.27809 37001 ft 496 kts 98°
2026-04-24 02:03 42.65892 31.37101 37001 ft 496 kts 98°
2026-04-24 02:04 42.64900 31.46341 37001 ft 496 kts 98°
2026-04-24 02:04 42.63894 31.55635 37001 ft 496 kts 98°
2026-04-24 02:05 42.62882 31.64905 37001 ft 496 kts 98°
2026-04-24 02:05 42.61864 31.74174 37001 ft 496 kts 98°
2026-04-24 02:06 42.60840 31.83418 37001 ft 496 kts 98°
2026-04-24 02:06 42.59806 31.92683 37001 ft 496 kts 98°
2026-04-24 02:07 42.58772 32.01886 37001 ft 496 kts 98°
2026-04-24 02:07 42.57723 32.11146 37001 ft 496 kts 98°
2026-04-24 02:08 42.56668 32.20394 37001 ft 496 kts 99°
2026-04-24 02:08 42.55610 32.29598 37001 ft 496 kts 99°
2026-04-24 02:09 42.54540 32.38842 37001 ft 496 kts 99°
2026-04-24 02:09 42.53459 32.48103 37001 ft 496 kts 99°
2026-04-24 02:10 42.52381 32.57280 37002 ft 496 kts 99°
2026-04-24 02:10 42.51290 32.66503 37002 ft 496 kts 99°
2026-04-24 02:11 42.50188 32.75756 37002 ft 496 kts 99°
2026-04-24 02:11 42.49083 32.84975 37001 ft 496 kts 99°
2026-04-24 02:12 42.47976 32.94135 37001 ft 496 kts 99°
2026-04-24 02:12 42.46852 33.03369 37001 ft 496 kts 99°
2026-04-24 02:13 42.45722 33.12593 37001 ft 496 kts 99°
2026-04-24 02:13 42.44590 33.21766 37001 ft 496 kts 99°
2026-04-24 02:14 42.43444 33.30994 37001 ft 496 kts 99°
2026-04-24 02:14 42.42299 33.40141 37001 ft 496 kts 99°
2026-04-24 02:15 42.41141 33.49344 37001 ft 496 kts 99°
2026-04-24 02:15 42.39975 33.58542 37001 ft 496 kts 99°
2026-04-24 02:16 42.38799 33.67760 37001 ft 496 kts 99°
2026-04-24 02:16 42.37624 33.76905 37001 ft 496 kts 100°
2026-04-24 02:17 42.36438 33.86068 37001 ft 496 kts 100°
2026-04-24 02:17 42.35242 33.95258 37001 ft 496 kts 100°
2026-04-24 02:18 42.34045 34.04398 37001 ft 496 kts 100°
2026-04-24 02:18 42.32833 34.13592 37001 ft 496 kts 100°
2026-04-24 02:19 42.31616 34.22761 37001 ft 496 kts 100°
2026-04-24 02:19 42.30392 34.31931 37001 ft 496 kts 100°
2026-04-24 02:20 42.29167 34.41046 37001 ft 496 kts 100°
2026-04-24 02:20 42.27928 34.50208 37001 ft 495 kts 100°
2026-04-24 02:21 42.26681 34.59375 37001 ft 495 kts 100°
2026-04-24 02:21 42.25435 34.68481 37001 ft 495 kts 100°
2026-04-24 02:22 42.24172 34.77655 37001 ft 495 kts 101°
2026-04-24 02:22 42.22914 34.86729 37001 ft 495 kts 101°
2026-04-24 02:23 42.21638 34.95878 37001 ft 495 kts 101°
2026-04-24 02:23 42.20354 35.05022 37001 ft 495 kts 101°
2026-04-24 02:24 42.19066 35.14148 37001 ft 495 kts 101°
2026-04-24 02:24 42.17770 35.23272 37001 ft 495 kts 101°
2026-04-24 02:25 42.16471 35.32366 37001 ft 495 kts 101°
2026-04-24 02:25 42.15161 35.41481 37001 ft 495 kts 101°
2026-04-24 02:26 42.13841 35.50608 37001 ft 495 kts 101°
2026-04-24 02:26 42.12524 35.59670 37001 ft 495 kts 101°
2026-04-24 02:27 42.11190 35.68789 37001 ft 495 kts 101°
2026-04-24 02:27 42.09857 35.77849 37001 ft 495 kts 101°
2026-04-24 02:28 42.08507 35.86971 37001 ft 495 kts 101°
2026-04-24 02:28 42.07154 35.96060 37001 ft 495 kts 101°
2026-04-24 02:29 42.05792 36.05154 37001 ft 495 kts 101°
2026-04-24 02:29 42.04432 36.14191 37001 ft 495 kts 101°
2026-04-24 02:30 42.03055 36.23282 37001 ft 495 kts 101°
2026-04-24 02:30 42.01671 36.32375 37001 ft 495 kts 102°
2026-04-24 02:31 42.00287 36.41413 37001 ft 495 kts 102°
2026-04-24 02:31 41.98890 36.50481 37001 ft 495 kts 102°
2026-04-24 02:32 41.97485 36.59553 37001 ft 495 kts 102°
2026-04-24 02:32 41.96069 36.68642 37001 ft 495 kts 102°
2026-04-24 02:33 41.94662 36.77629 37001 ft 495 kts 102°
2026-04-24 02:33 41.93234 36.86685 37001 ft 495 kts 102°
2026-04-24 02:34 41.91799 36.95740 37001 ft 495 kts 102°
2026-04-24 02:34 41.90494 37.04825 37004 ft 495 kts 97°
2026-04-24 02:35 41.90165 37.14050 37007 ft 495 kts 90°
2026-04-24 02:35 41.90098 37.23252 37003 ft 495 kts 90°
2026-04-24 02:36 41.90002 37.32527 37002 ft 495 kts 91°
2026-04-24 02:36 41.89865 37.41734 37002 ft 496 kts 91°
2026-04-24 02:37 41.89705 37.50999 37001 ft 496 kts 91°
2026-04-24 02:37 41.89536 37.60260 37001 ft 496 kts 91°
2026-04-24 02:38 41.89363 37.69521 37001 ft 496 kts 91°
2026-04-24 02:38 41.89184 37.78725 37001 ft 496 kts 91°
2026-04-24 02:39 41.88996 37.88008 37001 ft 496 kts 91°
2026-04-24 02:39 41.88803 37.97207 37001 ft 496 kts 91°
2026-04-24 02:40 41.88601 38.06465 37001 ft 496 kts 91°
2026-04-24 02:40 41.88392 38.15716 37001 ft 495 kts 91°
2026-04-24 02:41 41.88175 38.24969 37001 ft 495 kts 91°
2026-04-24 02:41 41.87952 38.34165 37001 ft 495 kts 91°
2026-04-24 02:42 41.87720 38.43427 37001 ft 495 kts 91°
2026-04-24 02:42 41.87481 38.52685 37001 ft 495 kts 92°
2026-04-24 02:43 41.87236 38.61866 37001 ft 495 kts 92°
2026-04-24 02:43 41.86982 38.71118 37002 ft 495 kts 92°
2026-04-24 02:44 41.86720 38.80365 37001 ft 495 kts 92°
2026-04-24 02:44 41.86454 38.89542 37001 ft 495 kts 92°
2026-04-24 02:45 41.86178 38.98782 37001 ft 495 kts 92°
2026-04-24 02:45 41.85894 39.08025 37001 ft 495 kts 92°
2026-04-24 02:46 41.85603 39.17283 37001 ft 495 kts 92°
2026-04-24 02:46 41.85306 39.26477 37001 ft 495 kts 92°
2026-04-24 02:47 41.85000 39.35722 37001 ft 495 kts 92°
2026-04-24 02:47 41.84687 39.44959 37001 ft 495 kts 92°
2026-04-24 02:48 41.84367 39.54198 37002 ft 495 kts 92°
2026-04-24 02:48 41.84041 39.63366 37001 ft 495 kts 92°
2026-04-24 02:49 41.83763 39.71048 37001 ft 495 kts 92°
2026-04-24 02:49 41.83421 39.80288 37001 ft 495 kts 92°
2026-04-24 02:50 41.83072 39.89523 37001 ft 495 kts 92°
2026-04-24 02:50 41.82716 39.98752 37002 ft 495 kts 92°
2026-04-24 02:51 41.82354 40.07926 37001 ft 495 kts 93°
2026-04-24 02:51 41.81982 40.17165 37001 ft 495 kts 93°
2026-04-24 02:52 41.81604 40.26381 37001 ft 495 kts 93°
2026-04-24 02:52 41.81218 40.35571 37001 ft 495 kts 93°
2026-04-24 02:53 41.80823 40.44825 37001 ft 495 kts 93°
2026-04-24 02:53 41.80421 40.54032 37001 ft 495 kts 93°
2026-04-24 02:54 41.80014 40.63213 37001 ft 495 kts 93°
2026-04-24 02:54 41.79589 40.72436 37001 ft 495 kts 93°
2026-04-24 02:55 41.79140 40.81651 37001 ft 495 kts 94°
2026-04-24 02:55 41.78678 40.90884 37001 ft 495 kts 94°
2026-04-24 02:56 41.78211 41.00090 37001 ft 495 kts 94°
2026-04-24 02:56 41.77740 41.09243 37001 ft 495 kts 94°
2026-04-24 02:57 41.77259 41.18462 37002 ft 495 kts 94°
2026-04-24 02:57 41.76770 41.27679 37002 ft 495 kts 94°
2026-04-24 02:58 41.76275 41.36876 37001 ft 495 kts 94°
2026-04-24 02:58 41.75775 41.46026 37001 ft 495 kts 94°
2026-04-24 02:59 41.75265 41.55235 37002 ft 495 kts 94°
2026-04-24 02:59 41.74747 41.64443 37001 ft 495 kts 94°
2026-04-24 03:00 41.74221 41.73651 37001 ft 495 kts 94°
2026-04-24 03:00 41.73692 41.82789 36995 ft 496 kts 94°
2026-04-24 03:01 41.73146 41.92071 37005 ft 498 kts 94°
2026-04-24 03:01 41.72594 42.01298 37007 ft 500 kts 94°
2026-04-24 03:02 41.72033 42.10623 36998 ft 503 kts 94°
2026-04-24 03:02 41.71475 42.19986 37003 ft 505 kts 94°
2026-04-24 03:03 41.70914 42.29340 36989 ft 508 kts 94°
2026-04-24 03:03 41.70336 42.38766 37006 ft 508 kts 95°
2026-04-24 03:04 41.69746 42.48200 36996 ft 509 kts 95°
2026-04-24 03:04 41.69147 42.57673 37004 ft 510 kts 95°
2026-04-24 03:05 41.68543 42.67074 37000 ft 509 kts 95°
2026-04-24 03:05 41.67930 42.76492 36997 ft 507 kts 95°
2026-04-24 03:06 41.67302 42.85866 36998 ft 504 kts 96°
2026-04-24 03:06 41.66198 42.95070 36996 ft 502 kts 100°
2026-04-24 03:07 41.64946 43.04250 36999 ft 500 kts 100°
2026-04-24 03:07 41.63703 43.13360 36998 ft 499 kts 100°
2026-04-24 03:08 41.61854 43.27089 37005 ft 500 kts 100°
2026-04-24 03:09 41.60612 43.36283 36996 ft 503 kts 100°
2026-04-24 03:09 41.59358 43.45520 37012 ft 507 kts 100°
2026-04-24 03:10 41.58090 43.54777 37011 ft 510 kts 100°
2026-04-24 03:10 41.56802 43.64126 37002 ft 512 kts 100°
2026-04-24 03:11 41.55507 43.73472 36995 ft 515 kts 101°
2026-04-24 03:11 41.54193 43.82890 37010 ft 515 kts 101°
2026-04-24 03:12 41.52870 43.92315 37006 ft 515 kts 101°
2026-04-24 03:12 41.51547 44.01680 37001 ft 512 kts 101°
2026-04-24 03:13 41.50230 44.10946 36999 ft 509 kts 101°
2026-04-24 03:13 41.48908 44.20196 36996 ft 505 kts 101°
2026-04-24 03:14 41.47588 44.29376 36996 ft 502 kts 101°
2026-04-24 03:14 41.46268 44.38496 37003 ft 499 kts 101°
2026-04-24 03:15 41.44953 44.47534 36997 ft 497 kts 101°
2026-04-24 03:15 41.43633 44.56551 37003 ft 494 kts 101°
2026-04-24 03:16 41.42309 44.65542 36998 ft 493 kts 101°
2026-04-24 03:16 41.40987 44.74470 37004 ft 493 kts 101°
2026-04-24 03:17 41.39649 44.83449 37004 ft 494 kts 101°
2026-04-24 03:17 41.38299 44.92453 37003 ft 496 kts 101°
2026-04-24 03:18 41.36943 45.01444 37003 ft 497 kts 101°
2026-04-24 03:18 41.35444 45.10380 36996 ft 497 kts 107°
2026-04-24 03:19 41.33226 45.19114 36993 ft 497 kts 109°
2026-04-24 03:19 41.30937 45.27800 37001 ft 497 kts 109°
2026-04-24 03:20 41.28670 45.36525 37001 ft 497 kts 109°
2026-04-24 03:20 41.26436 45.45175 36999 ft 497 kts 109°
2026-04-24 03:21 41.24184 45.53864 37003 ft 497 kts 109°
2026-04-24 03:21 41.21938 45.62492 36999 ft 496 kts 109°
2026-04-24 03:22 41.19663 45.71181 37003 ft 496 kts 109°
2026-04-24 03:22 41.17380 45.79803 37000 ft 497 kts 110°
2026-04-24 03:23 41.15075 45.88462 37003 ft 497 kts 110°
2026-04-24 03:23 41.12759 45.97140 37002 ft 498 kts 110°
2026-04-24 03:24 41.10459 46.05733 37007 ft 497 kts 110°
2026-04-24 03:24 41.08133 46.14384 36999 ft 497 kts 110°
2026-04-24 03:25 41.05804 46.23019 37000 ft 496 kts 110°
2026-04-24 03:25 41.03478 46.31633 37002 ft 495 kts 110°
2026-04-24 03:26 41.01204 46.40180 37001 ft 495 kts 109°
2026-04-24 03:26 40.98916 46.48780 36999 ft 495 kts 110°
2026-04-24 03:27 40.96611 46.57378 37004 ft 494 kts 110°
2026-04-24 03:27 40.94313 46.65907 37000 ft 494 kts 110°
2026-04-24 03:28 40.92001 46.74464 37001 ft 493 kts 110°
2026-04-24 03:28 40.89989 46.83141 37007 ft 494 kts 102°
2026-04-24 03:29 40.89094 46.92088 37005 ft 494 kts 95°
2026-04-24 03:29 40.88513 47.01135 37004 ft 495 kts 95°
2026-04-24 03:30 40.87889 47.10217 37002 ft 496 kts 95°
2026-04-24 03:30 40.87222 47.19284 37000 ft 496 kts 95°
2026-04-24 03:31 40.86541 47.28336 37002 ft 497 kts 95°
2026-04-24 03:31 40.85852 47.37431 37001 ft 497 kts 96°
2026-04-24 03:32 40.85158 47.46521 37003 ft 497 kts 96°
2026-04-24 03:32 40.84488 47.55633 37005 ft 498 kts 95°
2026-04-24 03:33 40.83941 47.64753 37003 ft 498 kts 94°
2026-04-24 03:33 40.83408 47.73823 36998 ft 498 kts 94°
2026-04-24 03:34 40.82846 47.82944 37005 ft 498 kts 95°
2026-04-24 03:34 40.82264 47.92055 37001 ft 498 kts 95°
2026-04-24 03:35 40.81673 48.01194 36994 ft 499 kts 95°
2026-04-24 03:35 40.81177 48.08776 37007 ft 498 kts 95°
2026-04-24 03:36 40.80475 48.19394 37004 ft 499 kts 95°
2026-04-24 03:36 40.79963 48.27043 36991 ft 501 kts 95°
2026-04-24 03:37 40.79342 48.36224 37010 ft 502 kts 95°
2026-04-24 03:37 40.78717 48.45355 37003 ft 504 kts 95°
2026-04-24 03:38 40.78074 48.54623 36999 ft 506 kts 95°
2026-04-24 03:38 40.77425 48.63868 37000 ft 506 kts 95°
2026-04-24 03:39 40.76771 48.73099 37001 ft 505 kts 95°
2026-04-24 03:39 40.76113 48.82281 37002 ft 504 kts 95°
2026-04-24 03:40 40.75446 48.91463 36997 ft 503 kts 95°
2026-04-24 03:40 40.74775 49.00594 36996 ft 502 kts 95°
2026-04-24 03:41 40.74097 49.09729 37005 ft 500 kts 95°
2026-04-24 03:41 40.73410 49.18862 37004 ft 500 kts 95°
2026-04-24 03:42 40.72664 49.27984 37012 ft 498 kts 98°
2026-04-24 03:42 40.71571 49.36963 37007 ft 498 kts 99°
2026-04-24 03:43 40.70456 49.45967 37004 ft 496 kts 99°
2026-04-24 03:43 40.69400 49.54943 37000 ft 495 kts 99°
2026-04-24 03:44 40.68326 49.63899 36998 ft 493 kts 99°
2026-04-24 03:44 40.67246 49.72763 37001 ft 492 kts 99°
2026-04-24 03:45 40.66153 49.81663 37001 ft 492 kts 99°
2026-04-24 03:45 40.65052 49.90571 37002 ft 492 kts 99°
2026-04-24 03:46 40.63954 49.99414 37002 ft 492 kts 99°
2026-04-24 03:46 40.62839 50.08337 37002 ft 493 kts 99°
2026-04-24 03:47 40.61715 50.17269 37006 ft 494 kts 99°
2026-04-24 03:47 40.60590 50.26146 37003 ft 495 kts 99°
2026-04-24 03:48 40.59449 50.35104 36998 ft 495 kts 99°
2026-04-24 03:48 40.58301 50.44050 37002 ft 495 kts 99°
2026-04-24 03:49 40.57154 50.52925 37001 ft 495 kts 99°
2026-04-24 03:49 40.55991 50.61871 37001 ft 495 kts 99°
2026-04-24 03:50 40.54826 50.70782 37001 ft 495 kts 99°
2026-04-24 03:50 40.53650 50.79703 37001 ft 494 kts 100°
2026-04-24 03:51 40.52477 50.88556 37001 ft 494 kts 100°
2026-04-24 03:51 40.51454 50.97505 37003 ft 494 kts 97°
2026-04-24 03:52 40.50680 51.06483 37000 ft 494 kts 96°
2026-04-24 03:52 40.49909 51.15398 37002 ft 494 kts 96°
2026-04-24 03:53 40.49092 51.24373 37002 ft 494 kts 97°
2026-04-24 03:53 40.48258 51.33340 37001 ft 494 kts 97°
2026-04-24 03:54 40.47420 51.42295 37001 ft 494 kts 97°
2026-04-24 03:54 40.46500 51.51244 37002 ft 494 kts 101°
2026-04-24 03:55 40.44952 51.59974 37006 ft 493 kts 104°
2026-04-24 03:55 40.43293 51.68722 37001 ft 494 kts 104°
2026-04-24 03:56 40.41649 51.77479 37004 ft 494 kts 104°
2026-04-24 03:56 40.40017 51.86267 37002 ft 494 kts 104°
2026-04-24 03:57 40.38386 51.95044 36998 ft 494 kts 104°
2026-04-24 03:57 40.36760 52.03745 37002 ft 494 kts 104°
2026-04-24 03:58 40.35114 52.12508 37001 ft 494 kts 104°
2026-04-24 03:58 40.33467 52.21231 37002 ft 494 kts 104°
2026-04-24 03:59 40.31812 52.29957 37002 ft 494 kts 104°
2026-04-24 03:59 40.30142 52.38718 37001 ft 494 kts 104°
2026-04-24 04:00 40.28477 52.47413 37001 ft 494 kts 104°
2026-04-24 04:00 40.26798 52.56146 37002 ft 494 kts 104°
2026-04-24 04:01 40.25124 52.64863 36999 ft 494 kts 104°
2026-04-24 04:01 40.23467 52.73520 37002 ft 493 kts 104°
2026-04-24 04:02 40.21784 52.82258 37001 ft 493 kts 104°
2026-04-24 04:02 40.20102 52.90934 37002 ft 493 kts 104°
2026-04-24 04:03 40.18406 52.99637 37004 ft 493 kts 104°
2026-04-24 04:03 40.16703 53.08342 37000 ft 494 kts 104°
2026-04-24 04:04 40.14996 53.17026 37003 ft 494 kts 104°
2026-04-24 04:04 40.13275 53.25747 37002 ft 495 kts 104°
2026-04-24 04:05 40.11545 53.34476 36995 ft 495 kts 104°
2026-04-24 04:05 40.09820 53.43141 37005 ft 495 kts 105°
2026-04-24 04:06 40.08078 53.51854 37001 ft 495 kts 105°
2026-04-24 04:06 40.06329 53.60568 37001 ft 495 kts 105°
2026-04-24 04:07 40.04578 53.69251 37003 ft 494 kts 105°
2026-04-24 04:07 40.02834 53.77863 37000 ft 494 kts 105°
2026-04-24 04:08 40.01071 53.86537 36997 ft 494 kts 105°
2026-04-24 04:08 39.99300 53.95207 37005 ft 494 kts 105°
2026-04-24 04:09 39.97521 54.03883 37000 ft 495 kts 105°
2026-04-24 04:09 39.95743 54.12517 37001 ft 495 kts 105°
2026-04-24 04:10 39.93949 54.21191 36999 ft 496 kts 105°
2026-04-24 04:10 39.92143 54.29885 36997 ft 496 kts 105°
2026-04-24 04:11 39.89422 54.42915 36999 ft 497 kts 105°
2026-04-24 04:11 39.87588 54.51608 37002 ft 497 kts 105°
2026-04-24 04:12 39.85740 54.60239 37001 ft 497 kts 105°
2026-04-24 04:12 39.83877 54.68902 37001 ft 496 kts 106°
2026-04-24 04:13 39.82026 54.77503 37001 ft 495 kts 105°
2026-04-24 04:13 39.80186 54.86130 37000 ft 494 kts 105°
2026-04-24 04:14 39.78346 54.94757 37002 ft 494 kts 105°
2026-04-24 04:14 39.76508 55.03315 37005 ft 493 kts 106°
2026-04-24 04:15 39.74651 55.11913 36998 ft 493 kts 106°
2026-04-24 04:15 39.72789 55.20497 37001 ft 493 kts 106°
2026-04-24 04:16 39.70936 55.29007 36998 ft 492 kts 106°
2026-04-24 04:16 39.69063 55.37579 36999 ft 493 kts 106°
2026-04-24 04:17 39.67181 55.46153 37003 ft 493 kts 106°
2026-04-24 04:17 39.65293 55.54717 37000 ft 493 kts 106°
2026-04-24 04:18 39.63410 55.63231 37000 ft 493 kts 106°
2026-04-24 04:18 39.61507 55.71794 37003 ft 493 kts 106°
2026-04-24 04:19 39.59607 55.80310 37001 ft 493 kts 106°
2026-04-24 04:19 39.57683 55.88870 37003 ft 493 kts 108°
2026-04-24 04:20 39.55258 55.97122 37003 ft 493 kts 112°
2026-04-24 04:20 39.52618 56.05315 37003 ft 493 kts 113°
2026-04-24 04:21 39.49967 56.13526 37004 ft 493 kts 113°
2026-04-24 04:21 39.47337 56.21738 37003 ft 493 kts 113°
2026-04-24 04:22 39.44727 56.29898 36999 ft 493 kts 113°
2026-04-24 04:22 39.42539 56.36724 37003 ft 493 kts 113°
2026-04-24 04:23 39.39900 56.44935 37001 ft 493 kts 113°
2026-04-24 04:23 39.37254 56.53137 36999 ft 493 kts 113°
2026-04-24 04:24 39.34607 56.61316 37000 ft 493 kts 113°
2026-04-24 04:24 39.31974 56.69429 37001 ft 493 kts 113°
2026-04-24 04:25 39.29320 56.77584 36998 ft 493 kts 113°
2026-04-24 04:25 39.26660 56.85736 37001 ft 492 kts 113°
2026-04-24 04:26 39.23994 56.93884 37004 ft 492 kts 113°
2026-04-24 04:26 39.21324 57.02018 36995 ft 493 kts 113°
2026-04-24 04:27 39.18645 57.10157 37002 ft 493 kts 113°
2026-04-24 04:27 39.15962 57.18281 37001 ft 493 kts 113°
2026-04-24 04:28 39.13272 57.26406 37003 ft 493 kts 113°
2026-04-24 04:28 39.10590 57.34481 37001 ft 493 kts 114°
2026-04-24 04:29 39.07891 57.42589 37003 ft 493 kts 114°
2026-04-24 04:29 39.05178 57.50714 36997 ft 493 kts 114°
2026-04-24 04:30 39.02463 57.58819 37002 ft 493 kts 114°
2026-04-24 04:30 38.99758 57.66872 37001 ft 493 kts 114°
2026-04-24 04:31 38.97032 57.74966 37001 ft 493 kts 114°
2026-04-24 04:31 38.94299 57.83059 37001 ft 493 kts 114°
2026-04-24 04:32 38.91564 57.91135 37003 ft 493 kts 114°
2026-04-24 04:32 38.88836 57.99167 37000 ft 493 kts 114°
2026-04-24 04:33 38.86093 58.07221 37002 ft 493 kts 114°
2026-04-24 04:33 38.83338 58.15287 37002 ft 493 kts 114°
2026-04-24 04:34 38.80580 58.23342 37001 ft 493 kts 114°
2026-04-24 04:34 38.77829 58.31353 37002 ft 493 kts 114°
2026-04-24 04:35 38.75060 58.39390 36997 ft 493 kts 114°
2026-04-24 04:35 38.72279 58.47443 37003 ft 493 kts 114°
2026-04-24 04:36 38.69512 58.55432 37000 ft 493 kts 114°
2026-04-24 04:36 38.66725 58.63462 37003 ft 493 kts 114°
2026-04-24 04:37 38.63935 58.71474 37003 ft 493 kts 114°
2026-04-24 04:37 38.61154 58.79435 36996 ft 493 kts 114°
2026-04-24 04:38 38.58352 58.87435 37001 ft 492 kts 114°
2026-04-24 04:38 38.55544 58.95432 37002 ft 492 kts 114°
2026-04-24 04:39 38.52748 59.03365 37004 ft 492 kts 115°
2026-04-24 04:39 38.49923 59.11363 36997 ft 493 kts 115°
2026-04-24 04:40 38.47182 59.19378 36999 ft 493 kts 112°
2026-04-24 04:40 38.44719 59.27548 37001 ft 493 kts 111°
2026-04-24 04:41 38.42316 59.35695 37004 ft 493 kts 111°
2026-04-24 04:41 38.39872 59.43866 37006 ft 493 kts 111°
2026-04-24 04:42 38.37398 59.52034 37004 ft 493 kts 111°
2026-04-24 04:42 38.34930 59.60139 37000 ft 494 kts 111°
2026-04-24 04:43 38.32435 59.68307 36998 ft 494 kts 111°
2026-04-24 04:43 38.29939 59.76464 37001 ft 494 kts 111°
2026-04-24 04:44 38.27442 59.84599 37000 ft 493 kts 111°
2026-04-24 04:44 38.24950 59.92696 36999 ft 493 kts 111°
2026-04-24 04:45 38.22440 60.00828 37002 ft 493 kts 112°
2026-04-24 04:45 38.19926 60.08949 37002 ft 493 kts 112°
2026-04-24 04:46 38.17403 60.17073 37003 ft 493 kts 112°
2026-04-24 04:46 38.14895 60.25125 37004 ft 493 kts 112°
2026-04-24 04:47 38.12364 60.33232 37000 ft 493 kts 112°
2026-04-24 04:47 38.09827 60.41332 37003 ft 493 kts 112°
2026-04-24 04:48 38.07297 60.49386 36999 ft 493 kts 112°
2026-04-24 04:48 38.04748 60.57474 37001 ft 493 kts 112°
2026-04-24 04:49 38.02193 60.65563 37001 ft 493 kts 112°
2026-04-24 04:49 37.99635 60.73637 37002 ft 493 kts 112°
2026-04-24 04:50 37.97081 60.81675 37000 ft 493 kts 112°
2026-04-24 04:50 37.94509 60.89745 37000 ft 493 kts 112°
2026-04-24 04:51 37.91930 60.97814 37002 ft 493 kts 112°
2026-04-24 04:51 37.89364 61.05823 37000 ft 493 kts 112°
2026-04-24 04:52 37.86774 61.13881 37001 ft 493 kts 112°
2026-04-24 04:52 37.84195 61.21885 37001 ft 493 kts 112°
2026-04-24 04:53 37.81597 61.29922 37001 ft 493 kts 112°
2026-04-24 04:53 37.78989 61.37968 36996 ft 493 kts 112°
2026-04-24 04:54 37.76377 61.46003 37000 ft 493 kts 112°
2026-04-24 04:54 37.73776 61.53981 37006 ft 493 kts 112°
2026-04-24 04:55 37.71151 61.62008 36997 ft 494 kts 112°
2026-04-24 04:55 37.68535 61.69990 37003 ft 494 kts 113°
2026-04-24 04:56 37.65896 61.78012 37004 ft 495 kts 113°
2026-04-24 04:56 37.63252 61.86035 36996 ft 494 kts 113°
2026-04-24 04:57 37.60338 61.93861 37032 ft 492 kts 118°
2026-04-24 04:57 37.57111 62.01483 37006 ft 492 kts 119°
2026-04-24 04:58 37.53862 62.09076 37003 ft 492 kts 118°
2026-04-24 04:58 37.50631 62.16671 37001 ft 492 kts 118°
2026-04-24 04:59 37.47419 62.24243 37005 ft 492 kts 118°
2026-04-24 04:59 37.44185 62.31859 36998 ft 493 kts 118°
2026-04-24 05:00 37.40936 62.39484 37002 ft 493 kts 118°
2026-04-24 05:00 37.37705 62.47048 37001 ft 493 kts 118°
2026-04-24 05:01 37.34452 62.54648 37001 ft 493 kts 119°
2026-04-24 05:01 37.31192 62.62246 37000 ft 493 kts 119°
2026-04-24 05:02 37.27955 62.69774 37006 ft 493 kts 119°
2026-04-24 05:02 37.24681 62.77366 37002 ft 494 kts 119°
2026-04-24 05:03 37.21409 62.84939 37001 ft 494 kts 119°
2026-04-24 05:03 37.18152 62.92460 36996 ft 494 kts 119°
2026-04-24 05:04 37.14863 63.00032 37001 ft 494 kts 119°
2026-04-24 05:04 37.11577 63.07587 37002 ft 494 kts 119°
2026-04-24 05:05 37.08281 63.15144 37003 ft 494 kts 119°
2026-04-24 05:05 37.04975 63.22706 37002 ft 494 kts 119°
2026-04-24 05:06 37.01681 63.30221 37002 ft 494 kts 119°
2026-04-24 05:06 36.98370 63.37763 37002 ft 494 kts 119°
2026-04-24 05:07 36.95048 63.45310 37002 ft 495 kts 119°
2026-04-24 05:07 36.91743 63.52798 36999 ft 495 kts 119°
2026-04-24 05:08 36.88412 63.60330 37003 ft 494 kts 119°
2026-04-24 05:08 36.85082 63.67843 36997 ft 495 kts 120°
2026-04-24 05:09 36.81740 63.75367 36999 ft 495 kts 120°
2026-04-24 05:09 36.78418 63.82828 37000 ft 495 kts 120°
2026-04-24 05:10 36.75067 63.90335 37005 ft 495 kts 120°
2026-04-24 05:10 36.71707 63.97845 36999 ft 495 kts 120°
2026-04-24 05:11 36.68912 64.04081 37006 ft 495 kts 120°
2026-04-24 05:11 36.65545 64.11578 36998 ft 496 kts 120°
2026-04-24 05:12 36.61616 64.20303 37004 ft 496 kts 120°
2026-04-24 05:12 36.58805 64.26531 37001 ft 496 kts 120°
2026-04-24 05:13 36.53714 64.37780 37003 ft 496 kts 120°
2026-04-24 05:14 36.50348 64.45199 37001 ft 496 kts 120°
2026-04-24 05:14 36.46953 64.52666 37001 ft 495 kts 120°
2026-04-24 05:15 36.43557 64.60115 37000 ft 495 kts 120°
2026-04-24 05:15 36.40153 64.67567 37001 ft 495 kts 120°
2026-04-24 05:16 36.36771 64.74952 36995 ft 494 kts 120°
2026-04-24 05:16 36.33370 64.82367 37005 ft 494 kts 120°
2026-04-24 05:17 36.29963 64.89777 37006 ft 494 kts 120°
2026-04-24 05:17 36.26555 64.97163 37001 ft 494 kts 120°
2026-04-24 05:18 36.23159 65.04518 37007 ft 494 kts 120°
2026-04-24 05:18 36.19737 65.11910 36988 ft 496 kts 120°
2026-04-24 05:19 36.16291 65.19341 37003 ft 497 kts 120°
2026-04-24 05:19 36.12843 65.26760 37001 ft 498 kts 120°
2026-04-24 05:20 36.09402 65.34140 37000 ft 498 kts 121°
2026-04-24 05:20 36.05933 65.41566 37001 ft 498 kts 121°
2026-04-24 05:21 36.02458 65.48992 36982 ft 499 kts 121°
2026-04-24 05:21 35.98967 65.56426 36997 ft 500 kts 121°
2026-04-24 05:22 35.95485 65.63831 37000 ft 503 kts 121°
2026-04-24 05:22 35.91950 65.71340 37002 ft 506 kts 121°
2026-04-24 05:23 35.88398 65.78861 36999 ft 509 kts 121°
2026-04-24 05:23 35.84839 65.86380 37008 ft 510 kts 121°
2026-04-24 05:24 35.81273 65.93899 36996 ft 504 kts 121°
2026-04-24 05:24 35.77714 66.01390 36996 ft 508 kts 121°
2026-04-24 05:25 35.74128 66.08910 37008 ft 509 kts 121°
2026-04-24 05:25 35.70541 66.16422 37000 ft 509 kts 121°
2026-04-24 05:26 35.66972 66.23884 37001 ft 509 kts 121°
2026-04-24 05:26 35.63364 66.31407 36999 ft 510 kts 121°
2026-04-24 05:27 35.59743 66.38939 37000 ft 512 kts 121°
2026-04-24 05:27 35.56115 66.46470 37010 ft 513 kts 121°
2026-04-24 05:28 35.52473 66.54013 37010 ft 513 kts 121°
2026-04-24 05:28 35.48878 66.61444 36994 ft 498 kts 121°
2026-04-24 05:29 35.45345 66.68731 37002 ft 502 kts 121°
2026-04-24 05:29 35.41745 66.76140 37001 ft 508 kts 121°
2026-04-24 05:30 35.38104 66.83618 37005 ft 513 kts 121°
2026-04-24 05:30 35.34423 66.91155 36998 ft 517 kts 121°
2026-04-24 05:31 35.30722 66.98722 37004 ft 518 kts 121°
2026-04-24 05:31 35.27054 67.06199 36994 ft 507 kts 121°
2026-04-24 05:32 35.23402 67.13642 37002 ft 511 kts 121°
2026-04-24 05:32 35.19821 67.21106 37004 ft 514 kts 121°
2026-04-24 05:33 35.16218 67.28676 37000 ft 516 kts 121°
2026-04-24 05:33 35.12582 67.36277 36996 ft 518 kts 121°
2026-04-24 05:34 35.07102 67.47654 37002 ft 515 kts 121°
2026-04-24 05:34 35.03524 67.55070 37008 ft 509 kts 121°
2026-04-24 05:35 34.99901 67.62556 37008 ft 511 kts 121°
2026-04-24 05:35 34.96277 67.70021 37009 ft 513 kts 121°
2026-04-24 05:36 34.92648 67.77487 36987 ft 515 kts 121°
2026-04-24 05:36 34.88976 67.85030 36996 ft 517 kts 121°
2026-04-24 05:37 34.85323 67.92515 36996 ft 516 kts 121°
2026-04-24 05:37 34.81660 68.00003 36989 ft 509 kts 121°
2026-04-24 05:38 34.78068 68.07330 36996 ft 509 kts 121°
2026-04-24 05:38 34.74421 68.14749 37001 ft 514 kts 121°
2026-04-24 05:39 34.70733 68.22239 37001 ft 516 kts 121°
2026-04-24 05:39 34.67041 68.29720 37000 ft 516 kts 121°
2026-04-24 05:40 34.63348 68.37190 36998 ft 516 kts 121°
2026-04-24 05:40 34.59648 68.44660 37002 ft 516 kts 121°
2026-04-24 05:41 34.55964 68.52084 37002 ft 515 kts 122°
2026-04-24 05:41 34.52262 68.59523 36995 ft 515 kts 121°
2026-04-24 05:42 34.48564 68.66947 37009 ft 510 kts 122°
2026-04-24 05:42 34.44940 68.74193 37007 ft 503 kts 122°
2026-04-24 05:43 34.41307 68.81449 36997 ft 502 kts 122°
2026-04-24 05:43 34.37680 68.88676 37000 ft 502 kts 122°
2026-04-24 05:44 34.34059 68.95878 37008 ft 503 kts 122°
2026-04-24 05:44 34.30409 69.03118 37007 ft 504 kts 122°
2026-04-24 05:45 34.26755 69.10359 37004 ft 504 kts 122°
2026-04-24 05:45 34.23091 69.17599 36998 ft 504 kts 122°
2026-04-24 05:46 34.19450 69.24778 36990 ft 505 kts 122°
2026-04-24 05:46 34.15769 69.32021 37013 ft 506 kts 122°
2026-04-24 05:47 34.12086 69.39288 37006 ft 510 kts 121°
2026-04-24 05:47 34.08897 69.46960 37004 ft 513 kts 115°
2026-04-24 05:48 34.05957 69.54781 37009 ft 514 kts 115°
2026-04-24 05:48 34.02977 69.62651 37008 ft 515 kts 115°
2026-04-24 05:49 33.99972 69.70453 37000 ft 514 kts 115°
2026-04-24 05:49 33.96945 69.78261 37006 ft 512 kts 115°
2026-04-24 05:50 33.93936 69.85999 36986 ft 509 kts 115°
2026-04-24 05:50 33.90943 69.93691 37010 ft 504 kts 115°
2026-04-24 05:51 33.87972 70.01302 37002 ft 499 kts 116°
2026-04-24 05:51 33.85037 70.08812 37003 ft 497 kts 116°
2026-04-24 05:52 33.82083 70.16349 37009 ft 497 kts 115°
2026-04-24 05:52 33.79141 70.23840 36997 ft 498 kts 116°
2026-04-24 05:53 33.76179 70.31362 36995 ft 498 kts 116°
2026-04-24 05:53 33.73213 70.38876 37000 ft 498 kts 116°
2026-04-24 05:54 33.70231 70.46417 37009 ft 500 kts 116°
2026-04-24 05:54 33.67220 70.54025 36996 ft 507 kts 116°
2026-04-24 05:55 33.64187 70.61657 36993 ft 510 kts 116°
2026-04-24 05:55 33.61147 70.69295 36990 ft 503 kts 116°
2026-04-24 05:56 33.58130 70.76854 36986 ft 500 kts 116°
2026-04-24 05:56 33.55141 70.84322 37012 ft 499 kts 116°
2026-04-24 05:57 33.52140 70.91807 36998 ft 496 kts 116°
2026-04-24 05:57 33.50678 70.95520 36783 ft 487 kts 113°
2026-04-24 05:57 33.49619 70.99342 36293 ft 482 kts 103°
2026-04-24 05:58 33.49050 71.03290 35797 ft 478 kts 96°
2026-04-24 05:58 33.48906 71.07251 35294 ft 473 kts 86°
2026-04-24 05:58 33.49138 71.11175 34730 ft 471 kts 84°
2026-04-24 05:58 33.49422 71.15025 34165 ft 468 kts 84°
2026-04-24 05:59 33.49718 71.18942 33670 ft 464 kts 84°
2026-04-24 05:59 33.49993 71.22726 33205 ft 459 kts 84°
2026-04-24 05:59 33.50254 71.26533 32622 ft 457 kts 85°
2026-04-24 05:59 33.50502 71.30331 31964 ft 457 kts 85°
2026-04-24 06:00 33.50661 71.32855 31519 ft 457 kts 85°
2026-04-24 06:00 33.50895 71.36641 30850 ft 456 kts 85°
2026-04-24 06:00 33.51127 71.40439 30251 ft 454 kts 85°
2026-04-24 06:00 33.51429 71.45424 29558 ft 448 kts 85°
2026-04-24 06:01 33.51580 71.47920 29226 ft 445 kts 85°
2026-04-24 06:01 33.51874 71.52781 28516 ft 440 kts 85°
2026-04-24 06:01 33.52023 71.55253 28158 ft 437 kts 85°
2026-04-24 06:01 33.52241 71.58873 27628 ft 434 kts 85°
2026-04-24 06:02 33.52454 71.62473 27094 ft 431 kts 85°
2026-04-24 06:02 33.52665 71.66039 26578 ft 428 kts 85°
2026-04-24 06:02 33.52872 71.69541 26069 ft 425 kts 85°
2026-04-24 06:02 33.53079 71.73056 25574 ft 422 kts 85°
2026-04-24 06:03 33.53283 71.76550 25127 ft 418 kts 85°
2026-04-24 06:03 33.53484 71.80008 24697 ft 415 kts 85°
2026-04-24 06:03 33.53684 71.83450 24256 ft 412 kts 85°
2026-04-24 06:03 33.53882 71.86869 23792 ft 409 kts 85°
2026-04-24 06:04 33.54083 71.90264 23345 ft 407 kts 85°
2026-04-24 06:04 33.54283 71.93635 22922 ft 404 kts 85°
2026-04-24 06:04 33.54480 71.96985 22511 ft 401 kts 85°
2026-04-24 06:04 33.54675 72.00309 22107 ft 398 kts 85°
2026-04-24 06:05 33.54850 72.03609 21685 ft 396 kts 88°
2026-04-24 06:05 33.54890 72.06919 21296 ft 394 kts 91°
2026-04-24 06:05 33.54675 72.10143 20900 ft 392 kts 97°
2026-04-24 06:05 33.54315 72.13373 20549 ft 390 kts 98°
2026-04-24 06:06 33.53926 72.16593 20186 ft 388 kts 98°
2026-04-24 06:06 33.53539 72.19777 19832 ft 385 kts 98°
2026-04-24 06:06 33.53162 72.22912 19291 ft 374 kts 98°
2026-04-24 06:06 33.52798 72.25983 18471 ft 371 kts 98°
2026-04-24 06:07 33.52441 72.29045 17581 ft 370 kts 98°
2026-04-24 06:07 33.52088 72.32093 16703 ft 368 kts 98°
2026-04-24 06:07 33.51738 72.35108 15892 ft 364 kts 98°
2026-04-24 06:07 33.51395 72.38057 15160 ft 359 kts 98°
2026-04-24 06:08 33.51051 72.41003 14433 ft 360 kts 98°
2026-04-24 06:08 33.50701 72.43975 14063 ft 360 kts 98°
2026-04-24 06:08 33.50354 72.46938 13844 ft 354 kts 98°
2026-04-24 06:08 33.50012 72.49848 13543 ft 351 kts 98°
2026-04-24 06:09 33.49673 72.52738 13171 ft 350 kts 98°
2026-04-24 06:09 33.49340 72.55598 12818 ft 349 kts 98°
2026-04-24 06:09 33.48996 72.58476 12448 ft 347 kts 99°
2026-04-24 06:09 33.48608 72.61331 12071 ft 345 kts 99°
2026-04-24 06:10 33.48208 72.64154 11845 ft 340 kts 100°
2026-04-24 06:10 33.47812 72.66905 11777 ft 330 kts 100°
2026-04-24 06:10 33.47427 72.69561 11567 ft 315 kts 100°
2026-04-24 06:11 33.46702 72.74628 10392 ft 308 kts 100°
2026-04-24 06:11 33.46342 72.77150 9777 ft 306 kts 100°
2026-04-24 06:11 33.45980 72.79671 9081 ft 311 kts 100°
2026-04-24 06:11 33.45618 72.82189 8490 ft 301 kts 100°
2026-04-24 06:12 33.45260 72.84713 7993 ft 309 kts 99°
2026-04-24 06:12 33.44919 72.87169 7829 ft 287 kts 101°
2026-04-24 06:12 33.44597 72.89453 7495 ft 271 kts 101°
2026-04-24 06:12 33.44275 72.91585 7441 ft 249 kts 101°
2026-04-24 06:13 33.43979 72.93574 7220 ft 243 kts 100°
2026-04-24 06:13 33.43698 72.95550 6724 ft 238 kts 100°
2026-04-24 06:13 33.43413 72.97487 6250 ft 234 kts 100°
2026-04-24 06:13 33.43138 72.99406 5727 ft 233 kts 100°
2026-04-24 06:14 33.42866 73.01340 5256 ft 236 kts 100°
2026-04-24 06:14 33.42704 73.03263 4834 ft 237 kts 83°
2026-04-24 06:14 33.43283 73.05080 4535 ft 235 kts 50°
2026-04-24 06:14 33.44537 73.06210 4351 ft 222 kts 19°
2026-04-24 06:15 33.45990 73.06755 4169 ft 217 kts
2026-04-24 06:15 33.47480 73.06986 3844 ft 215 kts
2026-04-24 06:15 33.48960 73.07075 3816 ft 209 kts 349°
2026-04-24 06:15 33.50202 73.06371 3812 ft 196 kts 311°
2026-04-24 06:16 33.50879 73.04986 3822 ft 194 kts 291°
2026-04-24 06:16 33.51325 73.03480 3834 ft 191 kts 287°
2026-04-24 06:16 33.51722 73.01939 3824 ft 194 kts 284°
2026-04-24 06:16 33.52026 73.00377 3812 ft 191 kts 281°
2026-04-24 06:17 33.52268 72.98846 3822 ft 180 kts 279°
2026-04-24 06:17 33.52483 72.97458 3817 ft 162 kts 279°
2026-04-24 06:17 33.52682 72.96161 3709 ft 162 kts 279°
2026-04-24 06:17 33.52887 72.94847 3484 ft 159 kts 279°
2026-04-24 06:18 33.53087 72.93571 3273 ft 149 kts 278°
2026-04-24 06:18 33.53269 72.92414 3108 ft 136 kts 278°
2026-04-24 06:18 33.53440 72.91317 2920 ft 134 kts 278°
2026-04-24 06:18 33.53614 72.90201 2741 ft 137 kts 278°
2026-04-24 06:19 33.53788 72.89087 2536 ft 136 kts 278°
2026-04-24 06:19 33.53961 72.87970 2393 ft 136 kts 276°
2026-04-24 06:19 33.54120 72.86849 2248 ft 138 kts 277°
2026-04-24 06:19 33.54300 72.85716 2046 ft 138 kts 277°
2026-04-24 06:20 33.54492 72.84596 1853 ft 139 kts 276°
2026-04-24 06:20 33.54663 72.83475 1772 ft 125 kts 278°
2026-04-24 06:20 33.54798 72.82602 1763 ft 85 kts 282°
2026-04-24 06:20 33.54882 72.82085 1767 ft 41 kts 279°
2026-04-24 06:21 33.54937 72.81833 1767 ft 27 kts 294°
2026-04-24 06:21 33.55030 72.81664 1768 ft 21 kts 307°
2026-04-24 06:21 33.55100 72.81585 1768 ft 11 kts 349°
2026-04-24 06:21 33.55182 72.81598 1765 ft 12 kts 11°
2026-04-24 06:22 33.55263 72.81613 1771 ft 12 kts
2026-04-24 06:22 33.55321 72.81635 1774 ft 8 kts 44°
2026-04-24 06:22 33.55329 72.81699 1772 ft 8 kts 93°
2026-04-24 06:22 33.55318 72.81778 1774 ft 16 kts 100°
2026-04-24 06:23 33.55294 72.81942 1774 ft 21 kts 99°
2026-04-24 06:23 33.55268 72.82113 1775 ft 21 kts 100°
2026-04-24 06:23 33.55242 72.82284 1776 ft 21 kts 100°
2026-04-24 06:23 33.55217 72.82439 1775 ft 16 kts 101°
2026-04-24 06:24 33.55204 72.82535 1775 ft 10 kts 88°
2026-04-24 06:24 33.55233 72.82590 1776 ft 8 kts 28°
2026-04-24 06:24 33.55289 72.82606 1777 ft 8 kts 13°
2026-04-24 06:24 33.55348 72.82621 1777 ft 9 kts 11°
2026-04-24 06:25 33.55403 72.82641 1777 ft 7 kts 34°
2026-04-24 06:25 33.55435 72.82690 1777 ft 8 kts 55°
2026-04-24 06:25 33.55468 72.82747 1777 ft 9 kts 54°
2026-04-24 06:25 33.55504 72.82810 1777 ft 9 kts 56°
2026-04-24 06:26 33.55538 72.82869 1777 ft 8 kts 56°
2026-04-24 06:26 33.55567 72.82920 1778 ft 6 kts 56°
2026-04-24 06:26 33.55580 72.82945 1777 ft 2 kts 67°
2026-04-24 06:26 33.55576 72.82962 1779 ft 2 kts 118°
2026-04-24 06:27 33.55562 72.82980 1777 ft 4 kts 134°
2026-04-24 06:27 33.55542 72.82999 1777 ft 4 kts 145°
2026-04-24 06:27 33.55522 72.83016 1776 ft 3 kts 145°
2026-04-24 06:27 33.55508 72.83028 1778 ft 2 kts 145°
2026-04-24 06:28 33.55506 72.83030 1778 ft 0 kts 145°